Погода в Урае

Россия / Ханты-Мансийский автономный округ - Югра     60°07′46″N   64°48′14″E
темп.,
°C
ветер,
м/с
пор.,
м/с
влажн.,
%
обл.,
%
осадки,
мм/ч
давл.,
гПа
погр.,
м
20 апреля, вт
вт2023:00−3ююз354569 0.0 1032169
02:00−3юз5114286 0.0 1031460
05:00−2зюз51050100 0.0 1029364
08:00+1з6135086 0.0 1026652
11:00+6зсз8114154 0.0 10251255
14:00+9зсз8113960 0.0 10231718
17:00+9сз7124645 0.0 10231621
20:00+7ссз6116357 0.0 1024514
21 апреля, ср
ср2123:00+4ссз4107912 0.0 1025319
02:00+2с24905 0.0 102773
05:00+1ссз22896 0.0 102912
08:00+3с227486 0.0 1031227
11:00+5ссв2265100 0.0 1032645
14:00+8св225630 0.0 10321079
17:00+8всв2153100 0.0 10331216
20:00+6юв466699 0.0 1034317
22 апреля, чт
чт2223:00+5юв367279 0.0 1035194
02:00+3ююв38805 0.0 1035173
05:00+1ююв388020 0.0 1036174
08:00+4ююв5867100 0.0 1036301
11:00+10ю6850100 0.0 1035910
14:00+13ю794361 0.0 10331582
17:00+14ю7942100 0.0 10321829
20:00+11ю5115290 0.0 1032520
23 апреля, пт
пт2323:00+8ююв61363100 0.0 1031443
02:00+7ю6136998 0.0 1031465
05:00+6ю51175100 0.0 1031391
08:00+8ююз586898 0.0 1031410
11:00+10ю5753100 0.0 1031990
14:00+10ююз51060100 0.1 10311401
17:00+9юз4867100 0.3 10301229
20:00+7ссз1182100 0.1 103048
24 апреля, сб
сб2423:00+6вюв1294100 1.5 102976
02:00+6ююз3693100 0.6 1028268
05:00+6ссз1196100 0.8 102831
08:00+6всв1194100 0.1 102718
11:00+8вюв2278100 0.2 1027531
14:00+8вюв3481100 0.1 1026553
17:00+7ююв3687100 0.3 1025435
20:00+6ююв3795100 0.6 1025492